SCP
-0 -0 -0 -0 -0 -0 -0 -0 0 -0 -0 -0 -0 0 0 0 0 0 0 0 0 0 0 0 0 0 0 0 0 0 0 0 0 0 0 -0 0 0 0 0 0 0 0 1 0
-0 -0 -0 -0 -0 -0 -0 -0 -0 -0 -0 -0 -0 -0 0 0 0 0 0 0 0 0 0 0 0 0 0 0 0 0 0 0 0 0 0 -0 0 0 0 0 0 0 0 0 0
-0 -0 -0 -0 -0 -0 -0 0 -0 0 -0 -0 -0 -0 0 0 0 0 0 0 0 0 0 -0 -0 0 0 0 0 -0 0 0 0 0 0 0 -0 0 0 0 0 0 0 0 0
-0 -0 -0 -0 -0 -0 -0 -0 0 -0 -0 0 -0 0 0 0 0 0 0 0 0 0 0 0 -0 0 0 0 -0 0 0 0 0 0 0 0 0 0 0 0 -0 0 0 0 0
-0 -0 -0 -0 -0 -0 0 -0 -0 -0 0 0 0 0 0 0 0 0 0 0 0 0 0 0 -0 0 -0 -0 0 0 0 0 0 0 0 0 0 0 0 0 0 0 0 0 0
-0 -0 -0 -0 -0 0 0 0 0 -0 0 0 0 0 0 0 0 0 0 0 0 0 0 0 0 -0 -0 0 0 -0 0 0 0 0 0 0 0 0 0 0 0 0 0 0 0
-0 -0 -0 -0 -0 0 0 -0 -0 -0 -0 0 0 0 0 0 0 0 0 0 0 0 0 -0 -0 0 0 0 0 0 0 0 0 0 0 0 0 0 0 0 0 0 0 0 0
-0 -0 -0 -0 0 0 0 -0 -0 0 0 0 0 0 0 0 -0 0 0 0 0 -0 -0 -0 -0 0 -0 0 0 0 0 0 0 0 0 0 0 0 0 0 0 0 0 0 -0
-0 -0 -0 -0 0 0 0 -0 0 0 0 0 0 0 0 0 0 0 0 0 0 0 0 -0 -0 0 0 0 0 0 0 0 0 0 0 0 0 0 0 0 0 0 0 0 0
-0 -0 -0 -0 0 0 0 0 0 0 0 0 -0 0 0 0 0 0 0 -0 0 0 0 0 0 0 0 0 0 0 0 0 -0 -0 0 0 0 0 0 0 0 0 0 0 0
0 0 0 0 0 0 -0 0 0 0 0 0 0 0 -0 0 0 0 0 0 0 0 0 0 0 0 0 0 -0 -0 0 0 0 0 0 0 0 0 0 0 0 0 0 0 0
0 0 0 0 0 -0 -0 0 0 0 0 0 0 0 -0 0 0 0 0 0 0 0 0 0 0 -0 0 0 0 0 0 0 0 0 0 0 0 0 0 0 0 0 0 0 0
0 0 0 0 0 -0 -0 0 0 0 0 0 0 0 0 0 0 0 0 0 0 0 0 0 -0 0 0 0 -0 0 0 0 0 0 0 0 0 0 0 0 0 0 0 0 0
0 0 0 0 0 -0 0 0 0 0 0 0 0 0 0 0 0 -0 0 -0 0 -0 0 0 -0 -0 -0 0 0 0 0 0 0 0 0 0 0 0 0 0 0 0 0 0 0
0 0 0 0 0 0 0 0 0 0 0 0 0 0 0 0 0 0 0 0 0 -0 0 -0 -0 -0 -0 0 0 -0 0 0 0 0 0 0 0 0 0 0 0 0 0 0 0
0 0 0 0 0 0 0 0 0 0 0 0 0 0 0 0 0 0 0 0 0 0 0 -0 0 0 -0 0 0 0 0 0 0 0 0 0 0 0 0 0 0 0 0 0 0
0 0 0 0 0 0 0 0 0 0 0 0 0 0 0 0 0 0 0 0 0 0 0 0 0 0 0 0 0 0 0 0 0 0 0 0 0 0 0 0 0 0 0 1 0
0 -0 0 0 0 0 0 0 0 0 -0 0 0 0 0 0 0 0 0 0 0 0 0 0 0 0 0 0 0 0 0 0 0 0 0 0 0 0 0 0 0 0 0 0 0
0 0 0 0 0 0 0 0 0 0 0 0 0 0 0 0 0 0 0 0 0 0 0 0 0 0 0 0 0 0 0 0 0 0 0 0 0 0 0 0 0 0 0 1 0
0 0 0 0 0 0 0 0 -0 0 0 0 0 0 0 0 0 0 0 0 0 0 0 0 0 0 0 0 0 0 0 0 0 0 0 0 0 0 0 0 0 0 0 1 0
0 0 0 0 0 0 0 0 0 0 0 0 0 0 0 0 0 0 0 0 0 0 0 0 0 0 0 0 0 0 0 0 0 0 0 0 0 1 1 1 1 0 0 0 0
0 0 0 0 0 0 0 0 0 0 0 0 0 0 0 0 0 0 0 0 0 0 0 0 0 0 0 0 0 0 0 0 0 0 0 0 0 0 0 0 0 0 0 0 0
0 0 0 0 0 0 0 0 0 0 0 0 0 0 0 0 0 0 0 0 0 0 0 0 0 0 0 0 -0 0 0 0 0 0 0 0 0 0 0 0 0 0 0 0 0
0 0 0 0 0 0 0 0 0 0 0 0 0 0 0 0 0 0 0 0 0 0 0 0 0 0 0 0 0 0 0 0 0 0 0 0 0 0 0 0 0 0 0 0 0
0 0 0 0 0 0 0 0 0 0 0 0 0 0 0 0 0 0 0 0 0 0 0 0 0 0 0 0 0 0 0 0 0 0 0 0 0 0 0 -0 -0 -0 0 -0 0
0 0 0 0 0 0 0 0 0 0 0 0 0 0 0 0 0 0 0 0 0 0 0 0 0 0 0 -0 0 0 0 0 0 0 0 0 0 0 0 -0 -0 -0 -0 -0 0
0 0 0 0 0 0 0 0 0 0 0 0 0 0 0 0 0 0 0 0 0 0 0 0 0 0 0 0 0 0 0 -0 0 0 0 0 0 0 0 0 -0 -0 -0 0 0
Wind_Speed_500mb
44 44 43 41 39 36 32 29 23 22 21 20 19 18 20 23 26 32 37 21 17 27 27 18 25 29 32 41 44 45 30 34 49 52 48 51 8 38 37 22 6 11 19 42 37
47 47 46 43 40 37 32 27 24 22 20 19 19 18 20 24 31 40 34 29 38 38 33 26 30 30 39 44 48 43 31 48 48 43 47 60 34 45 43 19 31 15 23 29 28
50 49 46 41 37 33 29 27 23 19 17 17 17 17 18 24 31 21 25 34 34 33 35 27 29 32 43 44 49 51 39 45 45 61 60 60 62 32 29 20 30 27 34 26 28
50 51 47 41 36 31 26 22 19 19 16 16 16 16 17 17 11 11 8 14 12 6 26 28 34 40 40 38 49 43 57 51 57 65 63 47 56 38 35 21 44 14 17 25 20
50 51 46 41 34 27 22 18 16 18 18 20 20 18 17 16 34 13 14 19 15 6 24 29 37 40 39 42 46 45 42 55 58 55 57 62 48 37 45 49 59 27 12 14 20
49 51 44 38 31 25 18 17 19 21 25 25 24 19 18 32 7 12 12 13 17 21 24 29 32 34 42 44 42 49 50 53 52 58 58 42 46 47 50 54 52 36 43 21 38
47 50 43 34 28 23 20 21 25 26 28 26 20 17 21 42 13 17 20 20 16 22 26 28 29 35 34 36 45 46 44 42 46 48 43 55 43 47 59 57 59 53 42 36 32
46 47 42 34 28 24 23 27 29 28 24 9 9 12 21 9 27 23 23 24 24 26 31 28 28 36 46 38 43 41 35 37 41 47 49 43 46 45 58 59 65 65 60 60 51
45 43 42 35 28 25 26 25 23 23 11 14 7 10 24 20 19 24 24 29 23 22 22 24 27 37 33 32 33 30 35 42 44 46 41 47 52 44 59 62 61 63 67 56 64
47 44 42 36 30 25 25 22 24 18 11 9 17 18 31 29 18 18 15 26 24 23 23 23 20 24 26 27 29 34 40 43 40 40 44 50 50 48 50 54 55 57 65 71 63
50 46 43 38 31 27 17 25 13 6 19 36 16 28 34 19 18 26 23 26 29 29 28 33 23 30 38 38 38 39 40 45 43 38 34 40 35 36 37 59 56 53 52 57 64
52 50 45 38 29 14 12 13 11 19 28 42 55 50 37 21 26 34 29 34 37 31 34 28 32 35 35 35 35 38 43 40 40 45 42 39 39 35 33 43 50 53 52 44 37
55 53 48 35 20 4 9 13 20 22 19 42 51 41 36 28 35 26 34 40 31 36 36 38 39 38 35 32 36 35 36 38 38 38 43 42 44 40 41 51 57 60 52 46 48
57 54 48 31 12 15 15 12 23 15 12 31 24 24 25 22 30 13 31 34 37 42 40 40 42 43 37 32 32 34 36 39 37 33 31 35 32 39 41 45 46 60 61 58 55
60 56 40 24 18 11 16 24 17 7 13 19 24 13 18 33 18 23 24 24 36 42 38 45 46 46 44 44 42 42 35 37 38 36 35 42 30 36 36 38 44 46 68 71 62
61 59 36 9 24 11 31 23 12 12 23 13 12 17 28 31 26 17 20 28 36 37 39 49 63 51 45 45 38 37 39 39 36 33 32 40 36 36 35 38 41 34 49 68 39
57 55 36 14 7 29 24 14 13 16 3 12 9 5 19 23 19 18 22 27 26 33 36 43 50 48 51 49 42 36 28 24 30 28 33 41 41 36 39 42 40 5 27 29 18
57 38 28 5 13 30 17 18 23 25 28 13 3 7 20 28 27 23 15 26 35 35 22 34 40 35 23 29 43 47 38 28 38 31 38 41 38 37 40 49 49 15 21 13 7
58 24 12 7 20 21 21 17 29 25 26 21 21 24 27 24 7 24 18 24 11 23 14 16 31 45 43 38 20 33 31 37 41 40 34 37 51 44 28 6 19 29 34 25 7
60 29 5 9 21 15 17 33 29 26 25 22 17 17 24 26 22 8 15 11 9 15 13 14 33 27 37 48 28 20 26 27 26 38 37 42 40 32 33 20 29 15 20 21 7
35 24 7 31 23 24 20 6 13 23 21 16 13 15 17 23 22 15 12 12 12 13 21 23 16 30 36 30 33 31 26 32 28 31 27 30 20 28 41 32 26 40 58 25 17
24 15 29 38 24 23 6 11 12 18 21 10 8 12 17 17 16 12 17 12 14 14 15 20 13 28 37 47 47 45 29 32 19 24 30 31 23 18 26 31 56 33 36 61 34
32 39 10 33 11 16 20 23 20 14 18 14 11 11 7 7 9 17 22 17 8 6 12 13 10 22 28 28 32 25 28 31 33 29 40 14 19 15 20 13 33 37 52 58 46
20 11 33 16 9 19 21 15 13 16 11 7 17 25 15 19 19 16 18 12 17 5 15 3 12 25 26 34 39 30 28 24 30 21 35 38 42 18 19 22 21 27 59 64 62
16 12 12 13 22 23 22 23 22 17 4 17 10 19 16 12 22 24 13 12 11 24 7 10 20 26 31 37 40 37 36 36 31 35 32 38 46 37 8 19 19 25 25 32 52
18 18 27 34 19 16 21 16 1 13 15 18 20 17 13 14 18 24 27 9 12 9 13 12 9 28 28 39 40 38 41 50 40 41 44 43 44 40 54 12 15 30 40 33 16
19 20 17 22 22 9 9 13 17 21 21 18 19 20 14 18 26 33 34 33 31 26 21 17 23 22 31 34 33 34 32 36 39 36 37 40 41 38 37 33 22 25 17 15 16
Wind_Direction_500mb
350 346 343 338 335 331 329 326 319 308 304 297 297 296 292 289 284 277 267 245 252 264 261 254 236 230 237 240 237 238 249 253 252 261 272 272 132 284 272 246 211 164 91 110 131
348 345 342 339 335 329 324 322 316 309 305 303 304 301 300 294 284 268 262 253 260 264 255 227 228 228 233 236 238 231 242 246 256 264 265 274 270 203 277 216 263 170 121 124 144
347 345 343 340 336 330 325 320 316 311 310 308 307 303 303 305 305 233 238 242 260 259 229 226 236 228 236 235 233 242 239 255 257 260 277 278 281 309 265 265 235 224 202 139 159
348 347 346 343 339 332 325 320 319 316 314 316 308 297 299 297 308 191 226 220 260 248 208 228 234 235 234 240 242 244 243 245 260 275 284 283 287 281 278 264 279 97 111 144 176
350 349 348 346 341 335 327 320 313 314 310 306 298 287 286 262 258 216 244 254 248 221 208 227 238 229 243 241 251 252 250 256 253 263 272 278 287 290 266 270 274 290 205 177 182
351 350 350 351 348 341 336 322 314 310 308 300 288 275 270 261 185 258 239 253 213 216 224 230 236 246 253 253 250 257 259 259 257 261 260 275 272 273 267 263 268 271 281 234 189
351 351 349 352 351 351 340 325 315 309 305 300 280 257 256 245 235 240 215 222 229 227 231 235 239 251 251 264 258 256 270 272 267 256 262 264 256 252 256 264 266 260 248 272 268
351 350 346 346 346 345 339 326 314 311 307 294 280 245 262 315 230 233 226 233 237 239 237 239 242 244 252 269 265 259 264 265 255 259 246 239 258 251 248 249 251 253 247 234 248
349 347 345 338 339 337 334 326 327 321 277 299 249 244 265 219 237 226 233 230 226 227 230 232 240 237 238 246 252 249 252 248 257 253 256 239 241 244 252 258 243 242 252 220 234
346 344 342 332 326 330 341 316 313 296 276 256 227 258 252 243 212 218 237 215 211 214 216 216 222 231 228 238 233 240 244 244 248 261 256 238 246 235 240 253 255 250 228 243 212
341 340 337 330 321 313 346 326 318 281 229 237 256 237 290 240 243 244 231 215 212 214 217 204 220 218 228 227 249 269 275 277 285 284 246 262 267 243 256 266 249 262 245 235 233
339 336 334 328 319 316 317 317 329 305 294 261 256 255 253 258 265 232 207 214 210 223 221 224 223 239 238 240 244 256 257 262 275 285 291 287 279 250 248 276 268 244 257 254 228
339 335 332 328 318 289 315 285 320 309 268 284 244 233 235 224 243 230 203 218 225 229 235 231 242 216 231 247 254 248 260 273 273 277 273 267 266 272 264 251 265 273 265 256 256
342 335 334 332 306 303 285 299 319 306 274 249 182 224 211 223 247 256 197 238 235 251 239 244 252 256 260 248 236 255 261 251 262 264 265 267 258 248 243 243 245 249 252 247 244
343 336 335 335 326 323 311 322 302 286 283 131 167 143 211 212 110 223 226 250 254 264 248 254 256 251 254 245 253 267 249 265 274 262 260 252 265 268 264 252 237 230 231 240 236
338 336 329 324 309 292 313 306 298 236 245 159 147 206 217 220 247 176 197 230 266 272 258 268 274 275 270 269 259 245 263 263 257 264 254 258 247 260 265 266 270 268 240 223 233
335 331 317 250 259 318 308 277 246 240 268 173 194 106 285 289 211 216 266 263 238 250 249 252 253 256 258 266 265 261 258 247 247 242 250 246 250 263 258 263 269 283 45 60 70
336 329 331 298 308 315 302 253 252 274 302 70 214 277 274 291 272 307 243 282 269 310 276 285 278 270 319 284 265 235 235 254 255 251 261 258 249 247 246 245 251 122 97 75 37
337 335 295 252 321 317 282 247 247 289 13 350 327 284 296 260 199 295 274 275 34 30 347 323 288 325 325 330 274 279 275 270 279 284 288 286 283 287 276 343 189 194 146 122 112
334 335 269 295 309 296 260 257 291 40 2 352 332 331 324 321 331 295 309 58 33 67 11 318 306 304 318 325 297 289 289 297 286 275 254 246 271 286 3 313 219 230 139 107 199
343 303 2 334 302 257 245 359 347 10 23 10 356 318 317 314 318 310 298 350 77 352 1 322 267 292 302 289 291 303 289 265 272 269 268 274 284 31 5 9 89 11 349 60 4
339 311 347 342 294 236 336 360 347 356 347 319 323 285 284 310 312 290 278 284 71 29 333 333 300 294 288 299 298 294 287 291 283 274 295 297 257 92 51 11 25 63 349 351 354
321 305 348 360 340 349 7 337 317 340 357 338 314 295 287 296 303 252 248 107 124 4 9 359 292 306 301 288 245 287 287 287 277 273 260 255 288 102 106 61 18 14 347 336 332
302 317 342 338 109 0 354 328 330 340 301 286 294 310 294 279 253 256 266 249 118 234 92 39 263 265 277 292 306 302 298 296 293 292 285 260 261 191 195 154 54 0 329 316 316
305 345 353 308 332 327 308 291 294 309 344 321 285 251 249 285 303 286 301 330 273 142 189 219 267 277 290 302 297 292 287 279 273 278 274 290 294 287 327 142 200 207 230 271 322
329 345 330 298 311 299 291 279 237 303 327 309 311 296 335 299 337 318 330 287 290 183 272 38 279 283 294 295 298 301 301 298 268 268 272 277 277 287 293 174 220 217 228 205 241
334 317 292 300 300 294 328 356 331 334 289 254 328 322 300 347 322 312 310 303 295 287 271 229 267 297 287 286 280 287 275 270 309 281 286 270 277 277 280 288 224 206 233 266 269
Wind_Speed_850mb
44 44 43 41 39 36 32 29 23 22 21 20 19 18 20 23 26 32 37 21 17 27 27 18 25 29 32 41 44 45 30 34 49 52 48 51 8 38 37 22 6 11 19 42 37
47 47 46 43 40 37 32 27 24 22 20 19 19 18 20 24 31 40 34 29 38 38 33 26 30 30 39 44 48 43 31 48 48 43 47 60 34 45 43 19 31 15 23 29 28
50 49 46 41 37 33 29 27 23 19 17 17 17 17 18 24 31 21 25 34 34 33 35 27 29 32 43 44 49 51 39 45 45 61 60 60 62 32 29 20 30 27 34 26 28
50 51 47 41 36 31 26 22 19 19 16 16 16 16 17 17 11 11 8 14 12 6 26 28 34 40 40 38 49 43 57 51 57 65 63 47 56 38 35 21 44 14 17 25 20
50 51 46 41 34 27 22 18 16 18 18 20 20 18 17 16 34 13 14 19 15 6 24 29 37 40 39 42 46 45 42 55 58 55 57 62 48 37 45 49 59 27 12 14 20
49 51 44 38 31 25 18 17 19 21 25 25 24 19 18 32 7 12 12 13 17 21 24 29 32 34 42 44 42 49 50 53 52 58 58 42 46 47 50 54 52 36 43 21 38
47 50 43 34 28 23 20 21 25 26 28 26 20 17 21 42 13 17 20 20 16 22 26 28 29 35 34 36 45 46 44 42 46 48 43 55 43 47 59 57 59 53 42 36 32
46 47 42 34 28 24 23 27 29 28 24 9 9 12 21 9 27 23 23 24 24 26 31 28 28 36 46 38 43 41 35 37 41 47 49 43 46 45 58 59 65 65 60 60 51
45 43 42 35 28 25 26 25 23 23 11 14 7 10 24 20 19 24 24 29 23 22 22 24 27 37 33 32 33 30 35 42 44 46 41 47 52 44 59 62 61 63 67 56 64
47 44 42 36 30 25 25 22 24 18 11 9 17 18 31 29 18 18 15 26 24 23 23 23 20 24 26 27 29 34 40 43 40 40 44 50 50 48 50 54 55 57 65 71 63
50 46 43 38 31 27 17 25 13 6 19 36 16 28 34 19 18 26 23 26 29 29 28 33 23 30 38 38 38 39 40 45 43 38 34 40 35 36 37 59 56 53 52 57 64
52 50 45 38 29 14 12 13 11 19 28 42 55 50 37 21 26 34 29 34 37 31 34 28 32 35 35 35 35 38 43 40 40 45 42 39 39 35 33 43 50 53 52 44 37
55 53 48 35 20 4 9 13 20 22 19 42 51 41 36 28 35 26 34 40 31 36 36 38 39 38 35 32 36 35 36 38 38 38 43 42 44 40 41 51 57 60 52 46 48
57 54 48 31 12 15 15 12 23 15 12 31 24 24 25 22 30 13 31 34 37 42 40 40 42 43 37 32 32 34 36 39 37 33 31 35 32 39 41 45 46 60 61 58 55
60 56 40 24 18 11 16 24 17 7 13 19 24 13 18 33 18 23 24 24 36 42 38 45 46 46 44 44 42 42 35 37 38 36 35 42 30 36 36 38 44 46 68 71 62
61 59 36 9 24 11 31 23 12 12 23 13 12 17 28 31 26 17 20 28 36 37 39 49 63 51 45 45 38 37 39 39 36 33 32 40 36 36 35 38 41 34 49 68 39
57 55 36 14 7 29 24 14 13 16 3 12 9 5 19 23 19 18 22 27 26 33 36 43 50 48 51 49 42 36 28 24 30 28 33 41 41 36 39 42 40 5 27 29 18
57 38 28 5 13 30 17 18 23 25 28 13 3 7 20 28 27 23 15 26 35 35 22 34 40 35 23 29 43 47 38 28 38 31 38 41 38 37 40 49 49 15 21 13 7
58 24 12 7 20 21 21 17 29 25 26 21 21 24 27 24 7 24 18 24 11 23 14 16 31 45 43 38 20 33 31 37 41 40 34 37 51 44 28 6 19 29 34 25 7
60 29 5 9 21 15 17 33 29 26 25 22 17 17 24 26 22 8 15 11 9 15 13 14 33 27 37 48 28 20 26 27 26 38 37 42 40 32 33 20 29 15 20 21 7
35 24 7 31 23 24 20 6 13 23 21 16 13 15 17 23 22 15 12 12 12 13 21 23 16 30 36 30 33 31 26 32 28 31 27 30 20 28 41 32 26 40 58 25 17
24 15 29 38 24 23 6 11 12 18 21 10 8 12 17 17 16 12 17 12 14 14 15 20 13 28 37 47 47 45 29 32 19 24 30 31 23 18 26 31 56 33 36 61 34
32 39 10 33 11 16 20 23 20 14 18 14 11 11 7 7 9 17 22 17 8 6 12 13 10 22 28 28 32 25 28 31 33 29 40 14 19 15 20 13 33 37 52 58 46
20 11 33 16 9 19 21 15 13 16 11 7 17 25 15 19 19 16 18 12 17 5 15 3 12 25 26 34 39 30 28 24 30 21 35 38 42 18 19 22 21 27 59 64 62
16 12 12 13 22 23 22 23 22 17 4 17 10 19 16 12 22 24 13 12 11 24 7 10 20 26 31 37 40 37 36 36 31 35 32 38 46 37 8 19 19 25 25 32 52
18 18 27 34 19 16 21 16 1 13 15 18 20 17 13 14 18 24 27 9 12 9 13 12 9 28 28 39 40 38 41 50 40 41 44 43 44 40 54 12 15 30 40 33 16
19 20 17 22 22 9 9 13 17 21 21 18 19 20 14 18 26 33 34 33 31 26 21 17 23 22 31 34 33 34 32 36 39 36 37 40 41 38 37 33 22 25 17 15 16
Wind_Direction_850mb
350 346 343 338 335 331 329 326 319 308 304 297 297 296 292 289 284 277 267 245 252 264 261 254 236 230 237 240 237 238 249 253 252 261 272 272 132 284 272 246 211 164 91 110 131
348 345 342 339 335 329 324 322 316 309 305 303 304 301 300 294 284 268 262 253 260 264 255 227 228 228 233 236 238 231 242 246 256 264 265 274 270 203 277 216 263 170 121 124 144
347 345 343 340 336 330 325 320 316 311 310 308 307 303 303 305 305 233 238 242 260 259 229 226 236 228 236 235 233 242 239 255 257 260 277 278 281 309 265 265 235 224 202 139 159
348 347 346 343 339 332 325 320 319 316 314 316 308 297 299 297 308 191 226 220 260 248 208 228 234 235 234 240 242 244 243 245 260 275 284 283 287 281 278 264 279 97 111 144 176
350 349 348 346 341 335 327 320 313 314 310 306 298 287 286 262 258 216 244 254 248 221 208 227 238 229 243 241 251 252 250 256 253 263 272 278 287 290 266 270 274 290 205 177 182
351 350 350 351 348 341 336 322 314 310 308 300 288 275 270 261 185 258 239 253 213 216 224 230 236 246 253 253 250 257 259 259 257 261 260 275 272 273 267 263 268 271 281 234 189
351 351 349 352 351 351 340 325 315 309 305 300 280 257 256 245 235 240 215 222 229 227 231 235 239 251 251 264 258 256 270 272 267 256 262 264 256 252 256 264 266 260 248 272 268
351 350 346 346 346 345 339 326 314 311 307 294 280 245 262 315 230 233 226 233 237 239 237 239 242 244 252 269 265 259 264 265 255 259 246 239 258 251 248 249 251 253 247 234 248
349 347 345 338 339 337 334 326 327 321 277 299 249 244 265 219 237 226 233 230 226 227 230 232 240 237 238 246 252 249 252 248 257 253 256 239 241 244 252 258 243 242 252 220 234
346 344 342 332 326 330 341 316 313 296 276 256 227 258 252 243 212 218 237 215 211 214 216 216 222 231 228 238 233 240 244 244 248 261 256 238 246 235 240 253 255 250 228 243 212
341 340 337 330 321 313 346 326 318 281 229 237 256 237 290 240 243 244 231 215 212 214 217 204 220 218 228 227 249 269 275 277 285 284 246 262 267 243 256 266 249 262 245 235 233
339 336 334 328 319 316 317 317 329 305 294 261 256 255 253 258 265 232 207 214 210 223 221 224 223 239 238 240 244 256 257 262 275 285 291 287 279 250 248 276 268 244 257 254 228
339 335 332 328 318 289 315 285 320 309 268 284 244 233 235 224 243 230 203 218 225 229 235 231 242 216 231 247 254 248 260 273 273 277 273 267 266 272 264 251 265 273 265 256 256
342 335 334 332 306 303 285 299 319 306 274 249 182 224 211 223 247 256 197 238 235 251 239 244 252 256 260 248 236 255 261 251 262 264 265 267 258 248 243 243 245 249 252 247 244
343 336 335 335 326 323 311 322 302 286 283 131 167 143 211 212 110 223 226 250 254 264 248 254 256 251 254 245 253 267 249 265 274 262 260 252 265 268 264 252 237 230 231 240 236
338 336 329 324 309 292 313 306 298 236 245 159 147 206 217 220 247 176 197 230 266 272 258 268 274 275 270 269 259 245 263 263 257 264 254 258 247 260 265 266 270 268 240 223 233
335 331 317 250 259 318 308 277 246 240 268 173 194 106 285 289 211 216 266 263 238 250 249 252 253 256 258 266 265 261 258 247 247 242 250 246 250 263 258 263 269 283 45 60 70
336 329 331 298 308 315 302 253 252 274 302 70 214 277 274 291 272 307 243 282 269 310 276 285 278 270 319 284 265 235 235 254 255 251 261 258 249 247 246 245 251 122 97 75 37
337 335 295 252 321 317 282 247 247 289 13 350 327 284 296 260 199 295 274 275 34 30 347 323 288 325 325 330 274 279 275 270 279 284 288 286 283 287 276 343 189 194 146 122 112
334 335 269 295 309 296 260 257 291 40 2 352 332 331 324 321 331 295 309 58 33 67 11 318 306 304 318 325 297 289 289 297 286 275 254 246 271 286 3 313 219 230 139 107 199
343 303 2 334 302 257 245 359 347 10 23 10 356 318 317 314 318 310 298 350 77 352 1 322 267 292 302 289 291 303 289 265 272 269 268 274 284 31 5 9 89 11 349 60 4
339 311 347 342 294 236 336 360 347 356 347 319 323 285 284 310 312 290 278 284 71 29 333 333 300 294 288 299 298 294 287 291 283 274 295 297 257 92 51 11 25 63 349 351 354
321 305 348 360 340 349 7 337 317 340 357 338 314 295 287 296 303 252 248 107 124 4 9 359 292 306 301 288 245 287 287 287 277 273 260 255 288 102 106 61 18 14 347 336 332
302 317 342 338 109 0 354 328 330 340 301 286 294 310 294 279 253 256 266 249 118 234 92 39 263 265 277 292 306 302 298 296 293 292 285 260 261 191 195 154 54 0 329 316 316
305 345 353 308 332 327 308 291 294 309 344 321 285 251 249 285 303 286 301 330 273 142 189 219 267 277 290 302 297 292 287 279 273 278 274 290 294 287 327 142 200 207 230 271 322
329 345 330 298 311 299 291 279 237 303 327 309 311 296 335 299 337 318 330 287 290 183 272 38 279 283 294 295 298 301 301 298 268 268 272 277 277 287 293 174 220 217 228 205 241
334 317 292 300 300 294 328 356 331 334 289 254 328 322 300 347 322 312 310 303 295 287 271 229 267 297 287 286 280 287 275 270 309 281 286 270 277 277 280 288 224 206 233 266 269